Lid_Strength_Index
3 3 2 2 2 3 2 1 2 2 2 2 2 3 3 3 3 1 2 2 3 4
3 3 2 3 3 3 3 3 4 3 2 2 2 2 3 3 3 3 3 3 4 5
3 3 2 3 3 3 3 4 5 4 4 3 3 3 2 3 3 4 4 4 5 6
5 4 4 4 4 3 4 4 4 3 3 3 3 3 3 4 4 6 5 6 7 6
4 5 5 5 4 3 2 2 2 3 3 3 3 3 4 5 6 6 6 6 8 8
6 6 6 5 4 4 4 3 3 3 4 4 4 5 6 5 6 7 7 8 9 9
10 9 8 8 7 7 6 5 6 7 7 7 7 7 8 8 9 9 9 9 9 10
11 10 10 10 9 10 9 9 8 8 9 9 8 7 8 9 9 10 10 10 11 12
12 13 13 12 12 12 11 10 12 10 11 10 9 9 9 9 10 10 11 12 13 13
14 14 14 14 13 13 13 13 11 11 11 11 11 10 9 10 11 11 12 12 13 13
13 14 14 14 14 14 13 12 12 12 12 12 12 11 10 11 12 12 12 12 13 13
14 15 15 16 16 13 13 13 14 13 13 13 13 12 10 11 12 13 13 13 12 12
14 15 15 15 16 14 13 14 15 14 15 15 16 12 10 11 13 14 14 13 13 13
17 17 17 18 18 18 17 15 19 18 18 17 16 14 10 10 13 13 14 13 13 13